EW4447 Aplace IT current weather conditions

sailwx.info

Wind from 351

Air temperature 22.8° C
Dewpoint 17.7° C

Last reported at 2020-Aug-11 23:10 UTC.
Time now 2020-Aug-11 23:58 UTC

Location: N 41°36' E 012°51'.
View on Google Maps.

See reports from other nearby stations

  
Tides and Currents Weather Stations Pressure Air Temp Water Temp Dewpoint Dewpoint Depression Visibility Wind Speed Wind Dir Waves Ship Positions
date/time (UTC)wind fromknots sea level pressurealtimeterstation pressurevisibilityair tempwater tempwave heightnotes
2020-Aug-11 23:10 351 22.8
2020-Aug-11 23:05 350 0 gusting 3 22.8
2020-Aug-11 23:00 351 1 gusting 3 22.8
2020-Aug-11 22:55 344 1 gusting 2 22.8
2020-Aug-11 22:50 345 1 gusting 3 22.8
2020-Aug-11 22:45 337 0 gusting 3 23.3
2020-Aug-11 22:40 339 0 gusting 2 23.3
2020-Aug-11 22:35 360 0 gusting 2 23.3
2020-Aug-11 22:29 360 1 gusting 2 23.3
2020-Aug-11 22:25 360 0 gusting 2 23.3
2020-Aug-11 22:20 360 0 gusting 2 23.3
2020-Aug-11 22:15 360 23.3
2020-Aug-11 22:10 360 0 gusting 3 23.3
2020-Aug-11 22:05 360 1 gusting 3 23.3
2020-Aug-11 21:59 360 0 gusting 3 23.3
2020-Aug-11 21:55 360 1 gusting 3 23.3
2020-Aug-11 21:50 360 0 gusting 3 23.3
2020-Aug-11 21:45 360 0 gusting 3 23.3
2020-Aug-11 21:40 360 1 gusting 3 23.3
2020-Aug-11 21:35 348 1 gusting 3 23.3
2020-Aug-11 21:30 335 23.3
2020-Aug-11 21:25 316 1 gusting 4 23.3
2020-Aug-11 21:20 290 2 gusting 3 23.9
2020-Aug-11 21:15 276 1 gusting 2 23.9
2020-Aug-11 21:10 297 1 gusting 3 23.9
2020-Aug-11 21:05 299 0 gusting 3 24.4
2020-Aug-11 21:00 289 1 gusting 3 24.4
2020-Aug-11 20:55 322 1 gusting 3 24.4
2020-Aug-11 20:50 358 0 gusting 3 24.4
2020-Aug-11 20:45 002 1 gusting 3 25.0
2020-Aug-11 20:40 002 25.0
2020-Aug-11 20:35 335 0 gusting 3 25.0
2020-Aug-11 20:30 291 0 gusting 1 25.0
2020-Aug-11 20:25 294 0 gusting 2 25.0
2020-Aug-11 20:20 338 25.0
2020-Aug-11 20:15 355 0 gusting 2 25.6
2020-Aug-11 20:10 355 1 gusting 2 25.6
2020-Aug-11 20:05 339 25.6
2020-Aug-11 20:00 348 25.6
2020-Aug-11 19:55 350 1 gusting 3 25.6
2020-Aug-11 19:50 326 2 gusting 3 25.6
2020-Aug-11 19:45 333 1 gusting 2 26.1
2020-Aug-11 19:40 327 1 gusting 2 26.1
2020-Aug-11 19:35 332 1 gusting 3 26.1
2020-Aug-11 19:30 348 1 gusting 3 26.7
2020-Aug-11 19:24 307 0 gusting 3 26.7
2020-Aug-11 19:20 298 1 gusting 3 27.2
2020-Aug-11 19:15 322 1 gusting 4 27.2
2020-Aug-11 19:10 298 1 gusting 4 27.8
2020-Aug-11 19:05 271 2 gusting 4 27.8
2020-Aug-11 19:00 269 1 gusting 4 28.3
2020-Aug-11 18:55 242 3 gusting 4 28.3
2020-Aug-11 18:50 223 1 gusting 3 28.3
2020-Aug-11 18:45 213 1 gusting 3 28.3
2020-Aug-11 18:40 184 0 gusting 2 28.3
2020-Aug-11 18:35 174 0 gusting 2 28.9
2020-Aug-11 18:30 170 0 gusting 2 28.9
2020-Aug-11 18:25 155 1 gusting 3 28.9
2020-Aug-11 18:19 139 1 gusting 4 28.9
2020-Aug-11 18:15 130 1 gusting 4 28.9
2020-Aug-11 18:10 127 2 gusting 4 28.9
2020-Aug-11 18:05 146 0 gusting 5 28.9
2020-Aug-11 18:00 139 1 gusting 6 29.4
2020-Aug-11 17:55 138 1 gusting 6 29.4
2020-Aug-11 17:50 155 3 gusting 6 29.4
2020-Aug-11 17:45 161 1 gusting 6 29.4
2020-Aug-11 17:40 149 3 gusting 8 30.0
2020-Aug-11 17:34 142 2 gusting 8 30.0
2020-Aug-11 17:30 152 4 gusting 8 30.6
2020-Aug-11 17:25 125 3 gusting 7 30.6
2020-Aug-11 17:20 109 1 gusting 6 31.1
2020-Aug-11 17:15 137 1 gusting 7 31.1
2020-Aug-11 17:10 141 2 gusting 9 31.1
2020-Aug-11 17:05 146 4 gusting 9 31.1
2020-Aug-11 17:00 141 5 gusting 9 31.1
2020-Aug-11 16:55 132 5 gusting 11 31.7
2020-Aug-11 16:50 137 4 gusting 11 31.7
2020-Aug-11 16:45 125 1 gusting 6 31.7
2020-Aug-11 16:39 135 4 gusting 6 31.7
2020-Aug-11 16:35 131 3 gusting 6 31.7
2020-Aug-11 16:29 129 3 gusting 7 31.7
2020-Aug-11 16:25 145 3 gusting 7 31.7
2020-Aug-11 16:20 156 5 gusting 7 31.7
2020-Aug-11 16:15 177 1 gusting 6 31.7
2020-Aug-11 16:10 214 1 gusting 6 31.7
2020-Aug-11 16:05 181 1 gusting 6 31.7
2020-Aug-11 16:00 183 3 gusting 6 31.7
2020-Aug-11 15:55 207 1 gusting 5 31.7
2020-Aug-11 15:50 195 1 gusting 6 31.7
2020-Aug-11 15:45 224 2 gusting 6 31.7
2020-Aug-11 15:40 257 2 gusting 9 31.7
2020-Aug-11 15:35 229 1 gusting 9 31.7
2020-Aug-11 15:30 237 3 gusting 7 31.7
2020-Aug-11 15:25 281 3 gusting 7 31.7
2020-Aug-11 15:20 263 0 gusting 9 32.2
2020-Aug-11 15:15 243 2 gusting 9 32.2
2020-Aug-11 15:10 195 3 gusting 8 32.2
2020-Aug-11 15:05 151 1 gusting 8 32.2
2020-Aug-11 15:00 142 3 gusting 9 32.2
2020-Aug-11 14:55 141 6 gusting 9 32.2
2020-Aug-11 14:50 158 5 gusting 8 32.8
2020-Aug-11 14:45 203 4 gusting 8 32.8
2020-Aug-11 14:40 219 3 gusting 8 32.2
2020-Aug-11 14:35 130 3 gusting 9 32.8
2020-Aug-11 14:30 131 4 gusting 9 33.3
2020-Aug-11 14:25 160 6 gusting 9 33.3
2020-Aug-11 14:20 166 2 gusting 6 33.3
2020-Aug-11 14:15 108 0 gusting 7 32.8
2020-Aug-11 14:10 104 0 gusting 7 32.8
2020-Aug-11 14:05 120 3 gusting 9 32.2
2020-Aug-11 14:00 160 5 gusting 9 32.2
2020-Aug-11 13:55 180 3 gusting 9 32.2
2020-Aug-11 13:50 152 6 gusting 11 31.7
2020-Aug-11 13:45 133 6 gusting 11 31.7
2020-Aug-11 13:40 150 6 gusting 11 31.7
2020-Aug-11 13:35 155 4 gusting 10 31.7
2020-Aug-11 13:30 118 2 gusting 10 31.7
2020-Aug-11 13:25 138 6 gusting 8 31.7
2020-Aug-11 13:20 175 2 gusting 6 31.7
2020-Aug-11 13:15 159 1 gusting 9 31.7
2020-Aug-11 13:09 165 3 gusting 9 31.7
2020-Aug-11 13:05 182 4 gusting 9 31.7
2020-Aug-11 12:59 186 1 gusting 8 31.7
2020-Aug-11 12:55 168 3 gusting 11 31.7
2020-Aug-11 12:50 197 3 gusting 11 31.7
2020-Aug-11 12:45 222 1 gusting 10 31.1
2020-Aug-11 12:40 212 3 gusting 9 31.1
2020-Aug-11 12:35 210 3 gusting 11 31.1
2020-Aug-11 12:30 220 2 gusting 11 31.1
2020-Aug-11 12:25 224 6 gusting 11 31.1
2020-Aug-11 12:20 209 6 gusting 11 31.1
2020-Aug-11 12:15 225 2 gusting 13 31.1
2020-Aug-11 12:09 235 5 gusting 13 31.1
2020-Aug-11 12:05 203 6 gusting 13 31.1
2020-Aug-11 12:00 184 6 gusting 9 31.1
2020-Aug-11 11:55 207 6 gusting 9 31.7
2020-Aug-11 11:50 204 5 gusting 12 31.7
2020-Aug-11 11:45 176 6 gusting 12 31.7
2020-Aug-11 11:40 160 4 gusting 13 31.7
2020-Aug-11 11:35 164 5 gusting 13 31.7
2020-Aug-11 11:30 165 5 gusting 12 31.7
2020-Aug-11 11:25 149 6 gusting 12 31.7
2020-Aug-11 11:20 149 6 gusting 12 31.7
2020-Aug-11 11:15 197 6 gusting 11 31.7
2020-Aug-11 11:10 220 5 gusting 11 31.7
2020-Aug-11 11:05 198 5 gusting 9 32.2
2020-Aug-11 11:00 171 4 gusting 9 32.2
2020-Aug-11 10:55 152 5 gusting 9 32.2
2020-Aug-11 10:50 145 6 gusting 9 32.2
2020-Aug-11 10:45 149 2 gusting 7 32.2
2020-Aug-11 10:40 149 2 gusting 9 32.2
2020-Aug-11 10:35 137 5 gusting 9 32.2
2020-Aug-11 10:30 144 1 gusting 6 32.2
2020-Aug-11 10:25 175 2 gusting 7 32.2
2020-Aug-11 10:20 220 2 gusting 7 32.8
2020-Aug-11 10:15 269 2 gusting 6 32.8
2020-Aug-11 10:10 353 1 gusting 4 32.2
2020-Aug-11 10:05 054 2 gusting 6 32.2
2020-Aug-11 10:00 060 1 gusting 6 31.7
2020-Aug-11 09:55 297 3 gusting 6 31.7
2020-Aug-11 09:50 277 1 gusting 8 31.7
2020-Aug-11 09:45 241 1 gusting 8 31.1
2020-Aug-11 09:40 220 2 gusting 6 31.1
2020-Aug-11 09:35 190 3 gusting 6 31.1
2020-Aug-11 09:30 164 2 gusting 6 30.6
2020-Aug-11 09:25 178 1 gusting 6 30.6
2020-Aug-11 09:20 174 30.6
2020-Aug-11 09:15 204 2 gusting 6 30.0
2020-Aug-11 09:10 200 2 gusting 6 30.0
2020-Aug-11 09:05 204 2 gusting 5 30.0
2020-Aug-11 09:00 204 2 gusting 5 30.0
2020-Aug-11 08:55 141 1 gusting 5 30.0
2020-Aug-11 08:50 125 2 gusting 5 30.0
2020-Aug-11 08:45 163 1 gusting 6 30.0
2020-Aug-11 08:40 152 29.4
2020-Aug-11 08:35 165 2 gusting 6 29.4
2020-Aug-11 08:30 169 1 gusting 6 29.4
2020-Aug-11 08:25 144 0 gusting 6 28.9
2020-Aug-11 08:20 141 3 gusting 6 28.9
2020-Aug-11 08:15 139 1 gusting 6 28.9
2020-Aug-11 08:10 146 4 gusting 6 28.9
2020-Aug-11 08:05 163 1 gusting 3 28.9
2020-Aug-11 08:00 172 2 gusting 5 28.9
2020-Aug-11 07:55 160 0 gusting 5 28.3
2020-Aug-11 07:50 105 2 gusting 5 28.3
2020-Aug-11 07:45 132 1 gusting 5 28.3
2020-Aug-11 07:40 145 1 gusting 4 28.3
2020-Aug-11 07:35 125 1 gusting 3 27.8
2020-Aug-11 07:30 164 1 gusting 3 27.8
2020-Aug-11 07:25 134 0 gusting 4 27.8
2020-Aug-11 07:20 087 1 gusting 4 27.8
2020-Aug-11 07:15 143 0 gusting 2 27.8
2020-Aug-11 07:10 158 0 gusting 3 27.8
2020-Aug-11 07:05 145 1 gusting 3 27.8
2020-Aug-11 07:00 165 2 gusting 3 27.2
2020-Aug-11 06:55 140 27.2
2020-Aug-11 06:50 099 0 gusting 3 27.2
2020-Aug-11 06:45 091 1 gusting 3 27.2
2020-Aug-11 06:40 025 1 gusting 5 27.2
2020-Aug-11 06:35 017 1 gusting 5 26.7
2020-Aug-11 06:30 013 1 gusting 4 26.7
2020-Aug-11 06:25 353 1 gusting 2 26.7
2020-Aug-11 06:20 356 0 gusting 2 26.7
2020-Aug-11 06:15 352 0 gusting 3 26.1
2020-Aug-11 06:10 338 1 gusting 3 25.6
2020-Aug-11 06:05 352 0 gusting 3 25.0
2020-Aug-11 06:00 332 24.4
2020-Aug-11 05:55 337 1 gusting 3 23.9
2020-Aug-11 05:50 359 0 gusting 2 23.9
2020-Aug-11 05:45 344 1 gusting 4 23.3
2020-Aug-11 05:40 334 22.8
2020-Aug-11 05:35 336 2 gusting 4 22.2
2020-Aug-11 05:30 335 1 gusting 3 22.2
2020-Aug-11 05:25 341 0 gusting 3 22.2
2020-Aug-11 05:20 349 22.2
2020-Aug-11 05:15 347 1 gusting 3 22.2
2020-Aug-11 05:10 350 21.7
2020-Aug-11 05:05 358 21.7
2020-Aug-11 05:00 359 1 gusting 3 21.1
2020-Aug-11 04:55 349 1 gusting 3 21.1
2020-Aug-11 04:50 302 21.1
2020-Aug-11 04:45 283 1 gusting 2 21.1
2020-Aug-11 04:40 309 1 gusting 3 21.1
2020-Aug-11 04:35 339 0 gusting 3 21.1
2020-Aug-11 04:30 349 2 gusting 4 21.1
2020-Aug-11 04:25 346 1 gusting 5 21.1
2020-Aug-11 04:20 339 2 gusting 5 20.6
2020-Aug-11 04:15 346 1 gusting 3 20.6
2020-Aug-11 04:10 353 1 gusting 3 20.6
2020-Aug-11 04:05 356 0 gusting 3 20.6
2020-Aug-11 04:00 360 21.1
2020-Aug-11 03:55 355 1 gusting 3 20.6
2020-Aug-11 03:50 345 20.6
2020-Aug-11 03:45 340 1 gusting 3 20.6
2020-Aug-11 03:40 329 1 gusting 3 20.6
2020-Aug-11 03:35 312 1 gusting 2 20.6
2020-Aug-11 03:30 307 20.6
2020-Aug-11 03:25 332 0 gusting 3 20.6
2020-Aug-11 03:20 333 1 gusting 3 20.6
2020-Aug-11 03:15 329 1 gusting 2 21.1
2020-Aug-11 03:10 340 0 gusting 2 21.1
2020-Aug-11 03:05 329 1 gusting 1 21.1
2020-Aug-11 03:00 344 21.1
2020-Aug-11 02:55 347 21.1
2020-Aug-11 02:50 334 1 gusting 3 21.1
2020-Aug-11 02:45 334 1 gusting 3 21.7
2020-Aug-11 02:40 352 1 gusting 2 21.7
2020-Aug-11 02:35 298 21.7
2020-Aug-11 02:30 322 21.7
2020-Aug-11 02:25 354 0 gusting 4 21.7
2020-Aug-11 02:20 342 0 gusting 4 21.1
2020-Aug-11 02:15 331 2 gusting 4 21.1
2020-Aug-11 02:10 333 2 gusting 3 21.1
2020-Aug-11 02:05 328 1 gusting 3 21.7
2020-Aug-11 01:59 344 1 gusting 1 21.7
2020-Aug-11 01:55 360 21.7
2020-Aug-11 01:50 360 0 gusting 1 21.7
2020-Aug-11 01:45 335 21.7
2020-Aug-11 01:40 296 21.7
2020-Aug-11 01:35 340 21.7
2020-Aug-11 01:30 336 21.1
2020-Aug-11 01:25 333 0 gusting 2 21.1
2020-Aug-11 01:20 335 0 gusting 2 21.1
2020-Aug-11 01:15 344 0 gusting 1 21.1
2020-Aug-11 01:10 335 21.1
2020-Aug-11 01:04 319 0 gusting 2 21.7
2020-Aug-11 01:00 331 0 gusting 2 21.7
2020-Aug-11 00:55 360 1 gusting 2 21.7
2020-Aug-11 00:50 344 21.7
2020-Aug-11 00:45 322 21.7
2020-Aug-11 00:40 21.7
2020-Aug-11 00:35 360 21.7
2020-Aug-11 00:30 343 21.7
2020-Aug-11 00:25 344 0 gusting 3 21.7
2020-Aug-11 00:20 325 21.7
2020-Aug-11 00:14 303 0 gusting 1 21.7
2020-Aug-11 00:10 314 21.7
2020-Aug-11 00:05 320 21.7
2020-Aug-11 00:00 321 21.7
2020-Aug-10 23:55 344 0 gusting 1 21.7
2020-Aug-10 23:50 360 21.7
2020-Aug-10 23:45 360 0 gusting 1 21.7
2020-Aug-10 23:40 360 21.7
2020-Aug-10 23:35 319 21.7
2020-Aug-10 23:30 307 21.7
2020-Aug-10 23:25 335 21.7
2020-Aug-10 23:20 355 21.7
2020-Aug-10 23:15 339 0 gusting 1 22.2
2020-Aug-10 23:10 295 0 gusting 1 22.2
2020-Aug-10 23:05 270 0 gusting 1 22.2
2020-Aug-10 23:00 22.2
2020-Aug-10 22:55 22.8
2020-Aug-10 22:50 22.2
2020-Aug-10 22:45 22.2
2020-Aug-10 22:40 22.2
2020-Aug-10 22:35 22.2
2020-Aug-10 22:30 270 22.2
2020-Aug-10 22:25 283 22.2
2020-Aug-10 22:20 305 1 gusting 2 22.8
2020-Aug-10 22:15 347 22.8
2020-Aug-10 22:10 357 22.8
2020-Aug-10 22:05 356 23.3
2020-Aug-10 21:59 354 23.3
2020-Aug-10 21:55 360 23.3
2020-Aug-10 21:50 360 23.3
2020-Aug-10 21:45 270 23.3
2020-Aug-10 21:40 275 23.3
2020-Aug-10 21:35 335 0 gusting 1 23.3
2020-Aug-10 21:30 360 23.3
2020-Aug-10 21:25 320 0 gusting 1 23.3
2020-Aug-10 21:20 281 23.3
2020-Aug-10 21:15 323 0 gusting 1 23.3
2020-Aug-10 21:10 360 0 gusting 1 23.9
2020-Aug-10 21:05 360 23.9
2020-Aug-10 21:00 353 23.9
2020-Aug-10 20:55 349 1 gusting 1 24.4
2020-Aug-10 20:50 349 24.4
2020-Aug-10 20:45 357 24.4
2020-Aug-10 20:40 360 0 gusting 1 24.4
2020-Aug-10 20:34 24.4
2020-Aug-10 20:30 360 24.4
2020-Aug-10 20:25 360 25.0
2020-Aug-10 20:20 360 25.0
2020-Aug-10 20:15 360 25.6
2020-Aug-10 20:10 005 0 gusting 1 25.6
2020-Aug-10 20:05 044 0 gusting 2 25.6
2020-Aug-10 20:00 059 0 gusting 2 26.1
2020-Aug-10 19:55 039 0 gusting 2 26.1
2020-Aug-10 19:50 039 1 gusting 2 26.7
2020-Aug-10 19:45 083 26.7
2020-Aug-10 19:40 090 26.7
2020-Aug-10 19:35 093 26.7
2020-Aug-10 19:30 094 0 gusting 3 26.7
2020-Aug-10 19:25 098 1 gusting 3 26.7
2020-Aug-10 19:20 096 1 gusting 3 26.7
2020-Aug-10 19:15 048 1 gusting 2 26.7
2020-Aug-10 19:10 355 27.2
2020-Aug-10 19:05 355 27.2
2020-Aug-10 18:59 132 27.8
2020-Aug-10 18:55 108 27.8
2020-Aug-10 18:50 124 27.8
2020-Aug-10 18:45 148 27.8
2020-Aug-10 18:40 162 1 gusting 3 28.3
2020-Aug-10 18:35 168 1 gusting 4 28.3
2020-Aug-10 18:30 159 1 gusting 4 28.3
2020-Aug-10 18:25 153 1 gusting 4 28.3
2020-Aug-10 18:20 154 2 gusting 4 28.3
2020-Aug-10 18:15 173 1 gusting 4 28.9
2020-Aug-10 18:10 142 0 gusting 4 28.9
2020-Aug-10 18:05 127 2 gusting 4 28.9
2020-Aug-10 17:59 135 1 gusting 3 29.4
2020-Aug-10 17:55 149 0 gusting 4 29.4
2020-Aug-10 17:50 163 1 gusting 4 29.4
2020-Aug-10 17:45 171 1 gusting 3 29.4
2020-Aug-10 17:40 164 1 gusting 3 29.4
2020-Aug-10 17:35 156 2 gusting 4 30.0
2020-Aug-10 17:30 150 0 gusting 4 30.0
2020-Aug-10 17:25 140 1 gusting 4 30.0
2020-Aug-10 17:20 141 1 gusting 5 30.0
2020-Aug-10 17:15 154 1 gusting 5 30.0
2020-Aug-10 17:10 163 3 gusting 4 30.6
2020-Aug-10 17:05 175 1 gusting 4 30.6
2020-Aug-10 17:00 168 1 gusting 5 30.6
2020-Aug-10 16:55 138 2 gusting 5 30.6
2020-Aug-10 16:50 129 1 gusting 6 31.1
2020-Aug-10 16:45 135 1 gusting 6 31.1
2020-Aug-10 16:40 154 1 gusting 4 31.1
2020-Aug-10 16:35 161 1 gusting 6 31.1
2020-Aug-10 16:30 158 2 gusting 6 31.1
2020-Aug-10 16:25 167 3 gusting 6 31.7
2020-Aug-10 16:20 154 1 gusting 5 31.7
2020-Aug-10 16:15 156 3 gusting 9 31.7
2020-Aug-10 16:10 165 1 gusting 9 31.7
2020-Aug-10 16:05 150 2 gusting 6 31.7
2020-Aug-10 16:00 153 1 gusting 6 32.2
2020-Aug-10 15:55 163 4 gusting 6 32.2
2020-Aug-10 15:50 172 1 gusting 6 32.2
2020-Aug-10 15:45 151 1 gusting 8 32.2
2020-Aug-10 15:40 134 5 gusting 11 32.2
2020-Aug-10 15:35 152 3 gusting 11 32.2
2020-Aug-10 15:30 167 2 gusting 8 32.2
2020-Aug-10 15:25 153 5 gusting 8 32.2
2020-Aug-10 15:20 170 1 gusting 7 32.2
2020-Aug-10 15:15 182 3 gusting 8 32.2
2020-Aug-10 15:10 177 2 gusting 8 32.2
2020-Aug-10 15:05 183 5 gusting 9 31.7
2020-Aug-10 15:00 183 3 gusting 9 32.2
2020-Aug-10 14:55 174 3 gusting 9 32.2
2020-Aug-10 14:50 165 3 gusting 9 32.2
2020-Aug-10 14:45 168 3 gusting 9 32.2
2020-Aug-10 14:40 180 3 gusting 6 32.2
2020-Aug-10 14:35 176 4 gusting 8 32.2
2020-Aug-10 14:30 161 3 gusting 9 32.2
2020-Aug-10 14:25 144 4 gusting 9 32.2
2020-Aug-10 14:20 143 3 gusting 9 32.2
2020-Aug-10 14:15 165 4 gusting 10 32.2
2020-Aug-10 14:10 161 1 gusting 13 32.2
2020-Aug-10 14:05 182 2 gusting 14 32.2
2020-Aug-10 14:01 189 6 gusting 14 32.2
2020-Aug-10 13:55 184 4 gusting 13 32.8
2020-Aug-10 13:50 175 6 gusting 13 32.8
2020-Aug-10 13:45 169 4 gusting 13 33.3
2020-Aug-10 13:40 174 5 gusting 13 33.3
2020-Aug-10 13:35 152 2 gusting 12 33.3
2020-Aug-10 13:30 145 3 gusting 12 33.3
2020-Aug-10 13:25 147 1 gusting 9 33.3
2020-Aug-10 13:20 159 5 gusting 13 33.3
2020-Aug-10 13:15 158 4 gusting 13 33.3
2020-Aug-10 13:10 167 3 gusting 10 33.3
2020-Aug-10 13:05 189 6 gusting 10 33.3
2020-Aug-10 13:00 168 3 gusting 10 33.3
2020-Aug-10 12:55 168 3 gusting 13 33.3
2020-Aug-10 12:50 192 3 gusting 13 33.3
2020-Aug-10 12:45 198 4 gusting 11 33.3
2020-Aug-10 12:40 173 6 gusting 11 33.3
2020-Aug-10 12:35 140 3 gusting 10 33.3
2020-Aug-10 12:30 156 3 gusting 11 33.3
2020-Aug-10 12:25 165 3 gusting 11 33.3
2020-Aug-10 12:20 178 4 gusting 9 33.3
2020-Aug-10 12:15 175 3 gusting 9 33.3
2020-Aug-10 12:10 162 6 gusting 9 32.8
2020-Aug-10 12:05 176 5 gusting 13 33.3
2020-Aug-10 12:00 188 3 gusting 13 33.3
2020-Aug-10 11:55 198 3 gusting 8 33.3
2020-Aug-10 11:50 171 4 gusting 8 33.3
2020-Aug-10 11:45 182 3 gusting 8 32.8
2020-Aug-10 11:40 223 3 gusting 11 32.8
2020-Aug-10 11:35 218 5 gusting 11 32.8
2020-Aug-10 11:30 191 4 gusting 11 32.8
2020-Aug-10 11:25 161 5 gusting 11 32.8
2020-Aug-10 11:20 150 3 gusting 11 32.8
2020-Aug-10 11:15 144 7 gusting 11 32.8
2020-Aug-10 11:10 152 7 gusting 11 33.3
2020-Aug-10 11:05 174 6 gusting 11 33.3
2020-Aug-10 11:00 193 5 gusting 12 33.3
2020-Aug-10 10:55 199 0 gusting 12 32.8
2020-Aug-10 10:50 196 6 gusting 12 32.8
2020-Aug-10 10:45 186 4 gusting 12 32.8
2020-Aug-10 10:40 169 4 gusting 12 32.8
2020-Aug-10 10:35 184 2 gusting 9 33.3
2020-Aug-10 10:30 183 4 gusting 8 33.3
2020-Aug-10 10:25 183 4 gusting 8 33.3
2020-Aug-10 10:20 200 4 gusting 8 32.8
2020-Aug-10 10:15 186 1 gusting 7 32.8
2020-Aug-10 10:10 197 4 gusting 7 32.8
2020-Aug-10 10:05 213 1 gusting 9 32.2
2020-Aug-10 10:00 183 3 gusting 9 32.2
2020-Aug-10 09:55 145 2 gusting 8 32.2
2020-Aug-10 09:50 125 3 gusting 8 32.2
2020-Aug-10 09:45 137 1 gusting 7 32.2
2020-Aug-10 09:40 138 2 gusting 7 32.2
2020-Aug-10 09:35 127 2 gusting 6 32.2
2020-Aug-10 09:30 113 2 gusting 6 32.2
2020-Aug-10 09:25 116 1 gusting 8 31.7
2020-Aug-10 09:20 128 3 gusting 9 31.7
2020-Aug-10 09:15 134 3 gusting 9 31.1
2020-Aug-10 09:10 113 1 gusting 9 31.1
2020-Aug-10 09:05 116 1 gusting 9 31.1
2020-Aug-10 09:00 132 6 gusting 9 31.1
2020-Aug-10 08:55 148 4 gusting 9 31.1
2020-Aug-10 08:50 155 3 gusting 9 31.1
2020-Aug-10 08:45 148 3 gusting 9 31.1
2020-Aug-10 08:40 136 4 gusting 9 31.1
2020-Aug-10 08:35 139 31.1
2020-Aug-10 08:30 166 3 gusting 8 31.1
2020-Aug-10 08:25 133 2 gusting 6 30.6
2020-Aug-10 08:20 106 0 gusting 6 30.6
2020-Aug-10 08:15 128 1 gusting 6 30.6
2020-Aug-10 08:10 111 3 gusting 6 30.6
2020-Aug-10 08:05 113 3 gusting 6 30.6
2020-Aug-10 08:00 105 1 gusting 7 30.6
2020-Aug-10 07:55 091 2 gusting 7 30.6
2020-Aug-10 07:50 121 4 gusting 7 30.6
2020-Aug-10 07:45 150 0 gusting 6 30.6
2020-Aug-10 07:40 120 1 gusting 6 30.6
2020-Aug-10 07:35 093 0 gusting 4 30.0
2020-Aug-10 07:30 096 0 gusting 5 30.0
2020-Aug-10 07:25 099 1 gusting 5 30.0
2020-Aug-10 07:20 087 2 gusting 4 30.0
2020-Aug-10 07:15 070 1 gusting 4 30.0
2020-Aug-10 07:10 042 1 gusting 3 30.0
2020-Aug-10 07:05 054 1 gusting 3 30.0
2020-Aug-10 07:00 038 1 gusting 3 29.4
2020-Aug-10 06:55 332 28.9
2020-Aug-10 06:50 349 1 gusting 3 28.9
2020-Aug-10 06:45 359 0 gusting 3 28.9
2020-Aug-10 06:40 020 0 gusting 5 28.3
2020-Aug-10 06:35 011 0 gusting 5 27.8
2020-Aug-10 06:30 358 2 gusting 6 27.8
2020-Aug-10 06:25 356 1 gusting 6 27.2
2020-Aug-10 06:20 004 1 gusting 5 26.7
2020-Aug-10 06:15 013 26.7
2020-Aug-10 06:10 006 1 gusting 6 26.1
2020-Aug-10 06:05 355 2 gusting 6 25.6
2020-Aug-10 06:00 350 1 gusting 4 25.0
2020-Aug-10 05:55 357 0 gusting 4 25.0
2020-Aug-10 05:50 353 24.4
2020-Aug-10 05:45 322 1 gusting 5 24.4
2020-Aug-10 05:40 295 1 gusting 3 23.9
2020-Aug-10 05:35 327 1 gusting 4 23.9
2020-Aug-10 05:30 343 1 gusting 4 23.9
2020-Aug-10 05:25 355 23.3
2020-Aug-10 05:20 002 1 gusting 3 22.8
2020-Aug-10 05:15 005 1 gusting 3 22.8
2020-Aug-10 05:10 350 0 gusting 3 22.2
2020-Aug-10 05:05 344 0 gusting 5 22.2
2020-Aug-10 05:00 340 2 gusting 5 21.7
2020-Aug-10 04:55 325 1 gusting 3 21.7
2020-Aug-10 04:50 331 21.7
2020-Aug-10 04:45 352 1 gusting 3 21.7
2020-Aug-10 04:40 357 1 gusting 5 21.7
2020-Aug-10 04:35 360 2 gusting 5 21.7
2020-Aug-10 04:30 360 1 gusting 3 21.7
2020-Aug-10 04:25 359 0 gusting 3 21.7
2020-Aug-10 04:20 350 21.7
2020-Aug-10 04:15 350 1 gusting 3 21.7
2020-Aug-10 04:10 351 1 gusting 3 21.7
2020-Aug-10 04:05 346 1 gusting 3 22.2
2020-Aug-10 04:00 354 0 gusting 6 22.2
2020-Aug-10 03:55 355 1 gusting 6 22.2
2020-Aug-10 03:50 340 3 gusting 6 22.2
2020-Aug-10 03:45 319 0 gusting 3 22.2
2020-Aug-10 03:40 337 1 gusting 3 22.2
2020-Aug-10 03:35 354 1 gusting 4 22.2
2020-Aug-10 03:30 360 1 gusting 6 22.2
2020-Aug-10 03:25 350 1 gusting 6 22.2
2020-Aug-10 03:20 339 1 gusting 3 22.2
2020-Aug-10 03:15 353 22.2
2020-Aug-10 03:10 358 0 gusting 4 22.2
2020-Aug-10 03:05 360 0 gusting 3 22.2
2020-Aug-10 03:00 357 0 gusting 3 22.2
2020-Aug-10 02:55 322 1 gusting 3 22.2
2020-Aug-10 02:50 292 22.2
2020-Aug-10 02:45 309 0 gusting 4 22.2
2020-Aug-10 02:40 336 1 gusting 4 22.8
2020-Aug-10 02:35 323 1 gusting 5 22.8
2020-Aug-10 02:30 331 1 gusting 5 22.8
2020-Aug-10 02:25 354 3 gusting 5 22.8
2020-Aug-10 02:20 353 0 gusting 4 22.8
2020-Aug-10 02:15 356 1 gusting 6 22.8
2020-Aug-10 02:10 360 2 gusting 6 22.8
2020-Aug-10 02:05 360 1 gusting 2 22.8
2020-Aug-10 01:59 360 0 gusting 2 22.8
2020-Aug-10 01:55 343 1 gusting 3 22.8
2020-Aug-10 01:50 346 0 gusting 5 22.8
2020-Aug-10 01:45 356 1 gusting 5 22.8
2020-Aug-10 01:40 354 1 gusting 4 23.3
2020-Aug-10 01:35 340 1 gusting 4 23.3
2020-Aug-10 01:30 337 1 gusting 4 23.3
2020-Aug-10 01:25 353 2 gusting 3 23.3
2020-Aug-10 01:20 356 2 gusting 3 23.3
2020-Aug-10 01:15 356 1 gusting 4 23.3
2020-Aug-10 01:10 360 1 gusting 4 23.3
2020-Aug-10 01:04 334 1 gusting 3 23.3
2020-Aug-10 01:00 333 1 gusting 3 23.3
2020-Aug-10 00:55 358 23.3
2020-Aug-10 00:50 354 0 gusting 4 23.3
2020-Aug-10 00:44 354 2 gusting 4 23.3
2020-Aug-10 00:40 360 1 gusting 3 23.3
2020-Aug-10 00:35 334 0 gusting 2 23.3
2020-Aug-10 00:30 324 23.3
2020-Aug-10 00:25 341 1 gusting 6 23.3
2020-Aug-10 00:20 335 1 gusting 6 23.3
2020-Aug-10 00:15 332 2 gusting 4 23.3
2020-Aug-10 00:10 353 1 gusting 3 23.3
2020-Aug-10 00:05 357 1 gusting 3 23.3
2020-Aug-10 00:00 355 1 gusting 3 23.3
2020-Aug-09 23:55 351 1 gusting 1 23.3
2020-Aug-09 23:50 325 23.3
2020-Aug-09 23:45 339 0 gusting 3 23.3
2020-Aug-09 23:40 360 23.3
2020-Aug-09 23:35 335 0 gusting 6 23.3
2020-Aug-09 23:30 326 1 gusting 6 23.3
2020-Aug-09 23:25 347 2 gusting 6 23.3
2020-Aug-09 23:20 354 1 gusting 5 23.3
2020-Aug-09 23:14 351 1 gusting 4 23.3
2020-Aug-09 23:10 351 1 gusting 4 23.3
2020-Aug-09 23:05 343 1 gusting 3 23.3
2020-Aug-09 23:00 338 1 gusting 3 23.3